Погода в Бутырском

Россия / Курганская область     55°22′26″N   63°33′12″E
темп.,
°C
ветер,
м/с
пор.,
м/с
влажн.,
%
обл.,
%
осадки,
мм/ч
давл.,
гПа
погр.,
м
8 декабря, ср
ср823:00−16з49905 0.0 1037166
02:00−17з37925 0.0 1038124
05:00−17з37935 0.0 1039119
08:00−17з369322 0.0 104083
11:00−14зсз2488100 0.0 1041107
14:00−11зюз238486 0.0 1041138
17:00−14ю229158 0.0 104134
20:00−13ю3885100 0.0 1041111
9 декабря, чт
чт923:00−10ююз51181100 0.0 1040221
02:00−9ююз61379100 0.0 1039269
05:00−9ююз61480100 0.0 1039312
08:00−9ююз6147684 0.0 1038294
11:00−9ююз61473100 0.0 1039310
14:00−8ююз61471100 0.0 1038307
17:00−9ююз6157248 0.0 1038264
20:00−9ююз6157299 0.0 1037261
10 декабря, пт
пт1023:00−9ююз61571100 0.0 1036271
02:00−9ююз61669100 0.0 1035278
05:00−9ююз61668100 0.0 1033267
08:00−9ююз61669100 0.0 1032263
11:00−8ююз71767100 0.0 1030302
14:00−6ююз61667100 0.0 1029367
17:00−6ююз61473100 0.0 1028291
20:00−7ююз41079100 0.0 1027222
11 декабря, сб
сб1123:00−8ююз3883100 0.0 1026150
02:00−8з2488100 0.0 102669
05:00−7с4994100 0.0 1026250
08:00−8с51089100 0.0 1027322
11:00−10с51089100 0.0 1029349
14:00−10с498687 0.0 1029331
17:00−12ссз49925 0.0 1029164
20:00−13ссз37935 0.0 1030119
12 декабря, вс
вс1223:00−14ссз49965 0.0 1030209
02:00−13ссз5119440 0.0 1031286
05:00−13ссз5119444 0.0 1033291
08:00−14ссз5119436 0.0 1034268
11:00−13ссз410915 0.0 1036274
14:00−11сз48875 0.0 1036270
17:00−13зсз359213 0.0 103876
20:00−13зсз36925 0.0 103895